TimeEDT,TemperatureF,Dew PointF,Humidity,Sea Level PressureIn,VisibilityMPH,Wind Direction,Wind SpeedMPH,Gust SpeedMPH,PrecipitationIn,Events,Conditions,WindDirDegrees,DateUTC
12:15 AM,37.4,33.8,87,30.23,10.0,Calm,Calm,-,N/A,,Clear,0,2013-03-28 04:15:00
12:35 AM,35.6,33.8,93,30.23,10.0,Calm,Calm,-,N/A,,Clear,0,2013-03-28 04:35:00
12:55 AM,35.6,33.8,93,30.23,10.0,Calm,Calm,-,N/A,,Clear,0,2013-03-28 04:55:00
1:15 AM,35.6,33.8,93,30.22,10.0,Calm,Calm,-,N/A,,Clear,0,2013-03-28 05:15:00
1:35 AM,33.8,33.8,100,30.23,10.0,NNE,4.6,-,N/A,,Clear,20,2013-03-28 05:35:00
1:55 AM,35.6,35.6,100,30.24,10.0,Calm,Calm,-,N/A,,Clear,0,2013-03-28 05:55:00
2:15 AM,35.6,35.6,100,30.24,10.0,Calm,Calm,-,N/A,,Clear,0,2013-03-28 06:15:00
2:35 AM,35.6,33.8,93,30.25,10.0,Calm,Calm,-,N/A,,Clear,0,2013-03-28 06:35:00
2:55 AM,35.6,33.8,93,30.24,10.0,Calm,Calm,-,N/A,,Clear,0,2013-03-28 06:55:00
3:35 AM,33.8,33.8,100,30.24,10.0,Calm,Calm,-,N/A,,Clear,0,2013-03-28 07:35:00
3:55 AM,33.8,33.8,100,30.24,10.0,Calm,Calm,-,N/A,,Clear,0,2013-03-28 07:55:00
4:15 AM,33.8,33.8,100,30.24,10.0,Calm,Calm,-,N/A,,Clear,0,2013-03-28 08:15:00
4:35 AM,35.6,32.0,87,30.25,10.0,North,3.5,-,N/A,,Clear,360,2013-03-28 08:35:00
4:55 AM,35.6,32.0,87,30.25,10.0,North,3.5,-,N/A,,Clear,360,2013-03-28 08:55:00
5:15 AM,33.8,32.0,93,30.25,10.0,Calm,Calm,-,N/A,,Clear,0,2013-03-28 09:15:00
5:35 AM,33.8,32.0,93,30.26,10.0,Calm,Calm,-,N/A,,Clear,0,2013-03-28 09:35:00
6:15 AM,35.6,32.0,87,30.26,10.0,North,3.5,-,N/A,,Clear,10,2013-03-28 10:15:00
6:35 AM,33.8,32.0,93,30.27,10.0,Calm,Calm,-,N/A,,Clear,0,2013-03-28 10:35:00
6:55 AM,33.8,32.0,93,30.28,10.0,North,3.5,-,N/A,,Clear,360,2013-03-28 10:55:00
7:15 AM,33.8,30.2,87,30.28,10.0,North,4.6,-,N/A,,Clear,360,2013-03-28 11:15:00
7:35 AM,33.8,30.2,87,30.29,10.0,North,4.6,-,N/A,,Clear,10,2013-03-28 11:35:00
8:35 AM,41.0,30.2,65,30.30,10.0,North,5.8,-,N/A,,Clear,360,2013-03-28 12:35:00
8:55 AM,42.8,30.2,61,30.31,10.0,NNE,9.2,-,N/A,,Clear,20,2013-03-28 12:55:00
9:15 AM,44.6,30.2,57,30.31,10.0,NNE,8.1,-,N/A,,Clear,20,2013-03-28 13:15:00
9:35 AM,44.6,30.2,57,30.31,10.0,NNE,11.5,16.1,N/A,,Clear,20,2013-03-28 13:35:00
10:55 AM,50.0,26.6,40,30.32,10.0,North,10.4,19.6,N/A,,Clear,10,2013-03-28 14:55:00
11:15 AM,51.8,26.6,38,30.31,10.0,NW,6.9,-,N/A,,Clear,320,2013-03-28 15:15:00
11:35 AM,51.8,26.6,38,30.31,10.0,North,10.4,-,N/A,,Clear,350,2013-03-28 15:35:00
11:55 AM,51.8,26.6,38,30.30,10.0,NW,9.2,-,N/A,,Clear,310,2013-03-28 15:55:00
12:15 PM,53.6,26.6,35,30.30,10.0,WNW,9.2,18.4,N/A,,Clear,290,2013-03-28 16:15:00
12:35 PM,53.6,26.6,35,30.29,10.0,West,12.7,-,N/A,,Clear,280,2013-03-28 16:35:00
12:55 PM,53.6,26.6,35,30.29,10.0,WNW,5.8,10.4,N/A,,Clear,300,2013-03-28 16:55:00
1:15 PM,55.4,28.4,36,30.28,10.0,North,6.9,-,N/A,,Clear,350,2013-03-28 17:15:00
1:55 PM,57.2,28.4,33,30.26,10.0,NNW,5.8,17.3,N/A,,Clear,330,2013-03-28 17:55:00
2:15 PM,57.2,28.4,33,30.25,10.0,WNW,8.1,-,N/A,,Clear,300,2013-03-28 18:15:00
2:35 PM,59.0,26.6,29,30.25,10.0,West,8.1,-,N/A,,Clear,280,2013-03-28 18:35:00
2:55 PM,59.0,28.4,31,30.24,10.0,WSW,9.2,-,N/A,,Clear,240,2013-03-28 18:55:00
3:15 PM,59.0,28.4,31,30.23,10.0,NW,6.9,-,N/A,,Clear,320,2013-03-28 19:15:00
3:35 PM,60.8,28.4,29,30.22,10.0,WNW,6.9,19.6,N/A,,Clear,300,2013-03-28 19:35:00
3:55 PM,60.8,28.4,29,30.21,10.0,NNW,9.2,-,N/A,,Clear,330,2013-03-28 19:55:00
4:15 PM,60.8,26.6,27,30.20,10.0,NW,8.1,16.1,N/A,,Clear,310,2013-03-28 20:15:00
4:35 PM,60.8,28.4,29,30.20,10.0,NW,11.5,16.1,N/A,,Clear,320,2013-03-28 20:35:00
4:55 PM,60.8,28.4,29,30.20,10.0,WNW,9.2,-,N/A,,Clear,290,2013-03-28 20:55:00
5:15 PM,60.8,28.4,29,30.19,10.0,WNW,8.1,-,N/A,,Clear,300,2013-03-28 21:15:00
5:35 PM,60.8,28.4,29,30.20,10.0,NW,10.4,16.1,N/A,,Clear,320,2013-03-28 21:35:00
5:55 PM,60.8,28.4,29,30.19,10.0,NW,8.1,-,N/A,,Clear,320,2013-03-28 21:55:00
6:15 PM,60.8,28.4,29,30.20,10.0,NNW,6.9,-,N/A,,Clear,340,2013-03-28 22:15:00
6:35 PM,60.8,28.4,29,30.20,10.0,NW,5.8,-,N/A,,Clear,320,2013-03-28 22:35:00
6:55 PM,59.0,26.6,29,30.21,10.0,NW,6.9,-,N/A,,Clear,310,2013-03-28 22:55:00
7:15 PM,59.0,26.6,29,30.22,10.0,NNW,4.6,-,N/A,,Clear,330,2013-03-28 23:15:00
7:35 PM,55.4,28.4,36,30.22,10.0,NW,3.5,-,N/A,,Clear,320,2013-03-28 23:35:00
7:55 PM,53.6,30.2,41,30.23,10.0,Calm,Calm,-,N/A,,Clear,0,2013-03-28 23:55:00
8:15 PM,50.0,32.0,50,30.24,10.0,Calm,Calm,-,N/A,,Clear,0,2013-03-29 00:15:00
8:35 PM,50.0,32.0,50,30.24,10.0,Calm,Calm,-,N/A,,Clear,0,2013-03-29 00:35:00
8:55 PM,46.4,32.0,57,30.25,10.0,Calm,Calm,-,N/A,,Clear,0,2013-03-29 00:55:00
9:15 PM,46.4,32.0,57,30.25,10.0,Calm,Calm,-,N/A,,Clear,0,2013-03-29 01:15:00
9:35 PM,44.6,32.0,61,30.26,10.0,Calm,Calm,-,N/A,,Clear,0,2013-03-29 01:35:00
9:55 PM,42.8,33.8,70,30.27,10.0,Calm,Calm,-,N/A,,Clear,0,2013-03-29 01:55:00
10:15 PM,42.8,32.0,66,30.27,10.0,Calm,Calm,-,N/A,,Clear,0,2013-03-29 02:15:00
10:35 PM,41.0,32.0,70,30.28,10.0,Calm,Calm,-,N/A,,Clear,0,2013-03-29 02:35:00
10:55 PM,41.0,33.8,76,30.28,10.0,Calm,Calm,-,N/A,,Clear,0,2013-03-29 02:55:00
11:15 PM,39.2,33.8,81,30.28,10.0,Calm,Calm,-,N/A,,Clear,0,2013-03-29 03:15:00
11:35 PM,39.2,33.8,81,30.28,10.0,Calm,Calm,-,N/A,,Clear,0,2013-03-29 03:35:00
11:55 PM,37.4,33.8,87,30.28,10.0,Calm,Calm,-,N/A,,Clear,0,2013-03-29 03:55:00